This is the latest recevied weather packets stored in our database for station/object KN6KS. If no packets are shown the sender has not sent any weather packets the latest 10 day(s).
| Time | Temp. | Humidity | Pressure | Rain* | Wind** | Luminosity | Snow |
|---|---|---|---|---|---|---|---|
| 1777527886 | 16.67° C | 42% | 1014.3 hPa | 0 mm | - | 0 W/m² | - |
| 1777527582 | 16.67° C | 42% | 1014.2 hPa | 0 mm | - | 0 W/m² | - |
| 1777527277 | 16.67° C | 41% | 1014.1 hPa | 0 mm | - | 0 W/m² | - |
| 1777526972 | 17.22° C | 41% | 1014.2 hPa | 0 mm | - | 0 W/m² | - |
| 1777526668 | 17.22° C | 41% | 1014.2 hPa | 0 mm | - | 0 W/m² | - |
| 1777526364 | 17.22° C | 40% | 1014.2 hPa | 0 mm | - | 0 W/m² | - |
| 1777526059 | 16.67° C | 40% | 1014.3 hPa | 0 mm | - | 0 W/m² | - |
| 1777525756 | 17.22° C | 39% | 1014.3 hPa | 0 mm | - | 0 W/m² | - |
| 1777525454 | 16.67° C | 39% | 1014.5 hPa | 0 mm | - | 0 W/m² | - |
| 1777525149 | 17.22° C | 38% | 1014.3 hPa | 0 mm | - | 0 W/m² | - |
| 1777524846 | 17.22° C | 37% | 1014.4 hPa | 0 mm | - | 0 W/m² | - |
| 1777524544 | 17.22° C | 35% | 1014.2 hPa | 0 mm | - | 0 W/m² | - |
| 1777524241 | 17.22° C | 33% | 1014.4 hPa | 0 mm | - | 0 W/m² | - |
| 1777523936 | 16.67° C | 36% | 1014.3 hPa | 0 mm | - | 0 W/m² | - |
| 1777523633 | 16.11° C | 39% | 1014.2 hPa | 0 mm | - | 0 W/m² | - |
| 1777523329 | 16.67° C | 37% | 1014.3 hPa | 0 mm | - | 0 W/m² | - |
| 1777523025 | 17.22° C | 38% | 1014 hPa | 0 mm | - | 0 W/m² | - |
| 1777522723 | 17.78° C | 35% | 1014.3 hPa | 0 mm | - | 0 W/m² | - |
| 1777522419 | 17.78° C | 34% | 1014.2 hPa | 0 mm | - | 0 W/m² | - |
| 1777522116 | 17.22° C | 36% | 1014.1 hPa | 0 mm | - | 0 W/m² | - |
| 1777521813 | 17.22° C | 37% | 1014.1 hPa | 0 mm | - | 0 W/m² | - |
| 1777521509 | 16.67° C | 43% | 1014.2 hPa | 0 mm | - | 0 W/m² | - |
| 1777521206 | 16.67° C | 42% | 1014 hPa | 0 mm | - | 0 W/m² | - |
| 1777520904 | 16.67° C | 44% | 1014 hPa | 0 mm | - | 0 W/m² | - |
| 1777520601 | 17.22° C | 42% | 1014 hPa | 0 mm | - | 0 W/m² | - |
* Rain latest hour (hover to see other rain measurements)
** Current wind speed in m/s (hover to see current wind gust speed)